GW4489 Weather Reports


Display with metric or nautical units.
time (UTC)temp
F
wind
direction
speed
MPH
gust
MPH
rain 1hr
in
rain 24hr
in
rain mn
in
humidity
%
barometer
mb
20260505171005 73 179 6.0 19.0 0.00 0.00 0.00 56 1013.7
20260505170505 72 185 7.0 16.0 0.00 0.00 0.00 56 1013.6
20260505170018 72 167 6.0 18.0 0.00 0.00 0.00 57 1013.7
20260505165506 72 206 9.0 19.0 0.00 0.00 0.00 55 1013.9
20260505165006 72 185 8.0 19.0 0.00 0.00 0.00 57 1013.8
20260505164503 71 177 5.0 15.0 0.00 0.00 0.00 59 1014.1
20260505164002 71 192 4.0 18.0 0.00 0.00 0.00 59 1014.3
20260505163503 71 196 10.0 18.0 0.00 0.00 0.00 57 1014.4
20260505163004 71 204 9.0 16.0 0.00 0.00 0.00 58 1014.4
20260505162502 71 209 6.0 16.0 0.00 0.00 0.00 58 1014.5
20260505162003 72 183 6.0 15.0 0.00 0.00 0.00 59 1014.5
20260505161516 73 180 4.0 12.0 0.00 0.00 0.00 60 1014.5
20260505161002 71 197 6.0 12.0 0.00 0.00 0.00 62 1014.5
20260505160504 71 209 5.0 9.0 0.00 0.00 0.00 62 1014.6
20260505153029 68 198 6.0 11.0 0.00 0.00 0.00 62 1014.4
20260505152503 68 209 4.0 10.0 0.00 0.00 0.00 62 1014.4
20260505152006 68 180 4.0 10.0 0.00 0.00 0.00 62 1014.5
20260505151508 68 152 3.0 10.0 0.00 0.00 0.00 62 1014.5
20260505151003 68 202 3.0 10.0 0.00 0.00 0.00 62 1014.5
20260505150504 68 188 3.0 10.0 0.00 0.00 0.00 61 1014.5
20260505140507 66 188 6.0 14.0 0.00 0.00 0.00 59 1013.7
20260505125004 65 190 4.0 8.0 0.00 0.00 0.00 61 1014.1
20260505124515 65 187 3.0 9.0 0.00 0.00 0.00 62 1014.0
20260505124003 64 185 3.0 9.0 0.00 0.00 0.00 61 1014.0
20260505123504 64 170 4.0 7.0 0.00 0.00 0.00 61 1013.9
20260505123021 64 191 2.0 7.0 0.00 0.00 0.00 63 1013.9
20260505122506 63 186 2.0 7.0 0.00 0.00 0.00 62 1013.7
20260505122009 62 222 3.0 7.0 0.00 0.00 0.00 64 1013.7
20260505121504 62 191 2.0 7.0 0.00 0.00 0.00 64 1013.6
20260505121003 61 169 3.0 5.0 0.00 0.00 0.00 64 1013.6
20260505120506 61 169 2.0 6.0 0.00 0.00 0.00 64 1013.5
20260505120006 61 169 3.0 6.0 0.00 0.00 0.00 65 1013.5
20260505115505 60 169 3.0 6.0 0.00 0.00 0.00 65 1013.4
20260505115003 60 169 2.0 5.0 0.00 0.00 0.00 66 1013.3
20260505114508 60 169 2.0 6.0 0.00 0.00 0.00 65 1013.4
20260505114003 60 169 1.0 6.0 0.00 0.00 0.00 66 1013.4
20260505113505 59 169 3.0 5.0 0.00 0.00 0.00 66 1013.3
20260505113012 59 169 1.0 5.0 0.00 0.00 0.00 66 1013.3
20260505112506 59 169 2.0 5.0 0.00 0.00 0.00 66 1013.2
20260505112007 58 169 1.0 5.0 0.00 0.00 0.00 66 1013.1
20260505111507 58 169 2.0 5.0 0.00 0.00 0.00 66 1013.0
20260505111003 58 169 2.0 5.0 0.00 0.00 0.00 66 1013.0
20260505110502 58 169 1.0 5.0 0.00 0.00 0.00 66 1013.0
20260505102006 58 169 2.0 6.0 0.00 0.00 0.00 65 1012.4
20260505101519 59 169 3.0 6.0 0.00 0.00 0.00 64 1012.4
20260505101006 59 169 1.0 5.0 0.00 0.00 0.00 64 1012.3
20260505100508 59 169 3.0 5.0 0.00 0.00 0.00 64 1012.3
20260505100030 59 169 2.0 5.0 0.00 0.00 0.00 63 1012.3
20260505095503 60 169 1.0 6.0 0.00 0.00 0.00 63 1012.4
20260505095003 59 169 1.0 6.0 0.00 0.00 0.00 63 1012.4
20260505094505 59 169 1.0 4.0 0.00 0.00 0.00 63 1012.5
20260505094004 59 169 1.0 4.0 0.00 0.00 0.00 64 1012.4
20260505093506 59 169 2.0 4.0 0.00 0.00 0.00 64 1012.5
20260505093011 59 169 1.0 4.0 0.00 0.00 0.00 63 1012.6
20260505092504 60 169 2.0 4.0 0.00 0.00 0.00 63 1012.7
20260505092004 60 169 2.0 4.0 0.00 0.00 0.00 62 1012.7
20260505091527 60 169 1.0 4.0 0.00 0.00 0.00 62 1012.6
20260505091006 60 169 2.0 5.0 0.00 0.00 0.00 62 1012.5
20260505090503 60 169 1.0 5.0 0.00 0.00 0.00 62 1012.6
20260505090036 60 169 1.0 4.0 0.00 0.00 0.00 62 1012.6
20260505085506 61 169 1.0 5.0 0.00 0.00 0.00 61 1012.6
20260505085009 61 169 2.0 6.0 0.00 0.00 0.00 61 1012.5
20260505084526 61 169 1.0 6.0 0.00 0.00 0.00 61 1012.5
20260505084012 61 169 1.0 7.0 0.00 0.00 0.00 61 1012.5
20260505083502 62 169 2.0 7.0 0.00 0.00 0.00 60 1012.5
20260505083010 62 208 1.0 7.0 0.00 0.00 0.00 60 1012.5
20260505082502 62 208 2.0 7.0 0.00 0.00 0.00 60 1012.5
20260505082002 62 196 1.0 12.0 0.00 0.00 0.00 59 1012.5
20260505081512 62 198 6.0 12.0 0.00 0.00 0.00 59 1012.4
20260505081003 62 193 2.0 5.0 0.00 0.00 0.00 60 1012.4
20260505080503 62 194 2.0 8.0 0.00 0.00 0.00 60 1012.4
20260505080042 63 214 2.0 8.0 0.00 0.00 0.00 60 1012.3
20260505075508 63 159 3.0 8.0 0.00 0.00 0.00 59 1012.3
20260505075007 63 186 2.0 10.0 0.00 0.00 0.00 59 1012.2
20260505074520 63 188 4.0 10.0 0.00 0.00 0.00 59 1012.1
20260505074007 63 190 3.0 16.0 0.00 0.00 0.00 59 1012.1
20260505073508 63 204 2.0 16.0 0.00 0.00 0.00 59 1012.1
20260505073027 63 149 4.0 9.0 0.00 0.00 0.00 59 1012.0
20260505072509 63 202 3.0 11.0 0.00 0.00 0.00 59 1012.1
20260505072007 63 205 4.0 15.0 0.00 0.00 0.00 59 1012.1
20260505071510 63 180 5.0 15.0 0.00 0.00 0.00 59 1012.1
20260505071002 63 196 5.0 12.0 0.00 0.00 0.00 59 1012.2
20260505070502 63 223 6.0 12.0 0.00 0.00 0.00 59 1012.3
20260505070019 63 188 5.0 9.0 0.00 0.00 0.00 59 1012.3
20260505065504 63 212 3.0 6.0 0.00 0.00 0.00 59 1012.4
20260505065006 63 209 3.0 9.0 0.00 0.00 0.00 59 1012.4
20260505064520 64 211 4.0 9.0 0.00 0.00 0.00 58 1012.5
20260505064009 64 198 5.0 9.0 0.00 0.00 0.00 58 1012.5
20260505063511 64 211 3.0 7.0 0.00 0.00 0.00 57 1012.7
20260505063022 64 191 4.0 11.0 0.00 0.00 0.00 57 1012.7
20260505062511 64 209 5.0 13.0 0.00 0.00 0.00 57 1012.6
20260505062012 64 188 5.0 13.0 0.00 0.00 0.00 57 1012.6
20260505061526 64 200 5.0 12.0 0.00 0.00 0.00 57 1012.6
20260505061012 64 211 3.0 10.0 0.00 0.00 0.00 57 1012.7
20260505060512 64 215 4.0 10.0 0.00 0.00 0.00 57 1012.7
20260505060017 65 210 4.0 16.0 0.00 0.00 0.00 57 1012.9
20260505055506 64 209 5.0 16.0 0.00 0.00 0.00 56 1012.8
20260505055006 64 188 3.0 12.0 0.00 0.00 0.00 57 1012.9
20260505054520 64 190 6.0 12.0 0.00 0.00 0.00 57 1012.9
20260505054002 65 207 4.0 9.0 0.00 0.00 0.00 56 1012.8
20260505053501 65 244 3.0 12.0 0.00 0.00 0.00 56 1012.8
20260505053012 65 175 5.0 12.0 0.00 0.00 0.00 56 1012.8
20260505052506 65 191 4.0 9.0 0.00 0.00 0.00 56 1012.8
20260505052003 65 205 4.0 10.0 0.00 0.00 0.00 56 1012.8
20260505051505 65 205 4.0 10.0 0.00 0.00 0.00 55 1012.6
20260505051003 65 204 4.0 13.0 0.00 0.00 0.00 55 1012.7
20260505050506 66 198 4.0 13.0 0.00 0.00 0.00 55 1012.7
20260505041502 66 184 4.0 16.0 0.00 0.00 0.00 53 1012.2
20260505041003 66 184 6.0 15.0 0.00 0.00 0.00 53 1012.2
20260505040503 67 165 4.0 17.0 0.00 0.00 0.00 53 1012.2
20260505040004 67 180 6.0 17.0 0.00 0.00 0.00 52 1012.2
20260505035503 67 172 6.0 20.0 0.00 0.00 0.00 53 1012.2
20260505035003 67 165 5.0 20.0 0.00 0.00 0.00 53 1012.2
20260505034511 67 185 6.0 15.0 0.00 0.00 0.00 53 1012.2
20260505034005 67 203 4.0 13.0 0.00 0.00 0.00 53 1012.2
20260505033507 67 216 6.0 13.0 0.00 0.00 0.00 53 1012.3
20260505033016 67 203 4.0 20.0 0.00 0.00 0.00 54 1012.2
20260505032504 67 212 5.0 20.0 0.00 0.00 0.00 54 1012.2
20260505032007 67 174 5.0 15.0 0.00 0.00 0.00 55 1012.2
20260505031519 67 153 5.0 11.0 0.00 0.00 0.00 55 1012.2
20260505031010 66 182 4.0 11.0 0.00 0.00 0.00 55 1012.2
20260505030504 66 169 3.0 10.0 0.00 0.00 0.00 56 1012.3
20260505030002 66 182 4.0 10.0 0.00 0.00 0.00 56 1012.3
20260505025503 66 190 4.0 10.0 0.00 0.00 0.00 57 1012.1
20260505025004 66 162 4.0 10.0 0.00 0.00 0.00 57 1012.0
20260505024504 66 171 4.0 9.0 0.00 0.00 0.00 58 1012.1
20260505024004 66 198 3.0 11.0 0.00 0.00 0.00 58 1012.1
20260505023503 66 188 3.0 11.0 0.00 0.00 0.00 57 1012.1
20260505023010 66 171 3.0 8.0 0.00 0.00 0.00 57 1012.1
20260505022503 66 172 3.0 8.0 0.00 0.00 0.00 57 1012.1
20260505022006 66 165 4.0 7.0 0.00 0.00 0.00 57 1012.2
20260505021525 67 155 3.0 8.0 0.00 0.00 0.00 55 1012.1
20260505021007 67 163 3.0 8.0 0.00 0.00 0.00 55 1012.1
20260505020503 67 174 2.0 8.0 0.00 0.00 0.00 54 1012.1
20260505020022 68 234 3.0 11.0 0.00 0.00 0.00 54 1012.1
20260505015512 68 172 4.0 11.0 0.00 0.00 0.00 53 1012.1
20260505015007 68 206 2.0 9.0 0.00 0.00 0.00 52 1012.1
20260505014504 69 197 4.0 16.0 0.00 0.00 0.00 51 1012.1
20260505014003 69 204 7.0 16.0 0.00 0.00 0.00 51 1012.0
20260505013503 69 214 5.0 12.0 0.00 0.00 0.00 52 1012.1
20260505013008 69 202 6.0 12.0 0.00 0.00 0.00 52 1012.2
20260505012506 69 189 6.0 14.0 0.00 0.00 0.00 52 1012.1
20260505012004 69 167 7.0 14.0 0.00 0.00 0.00 53 1012.1
20260505011527 69 184 5.0 10.0 0.00 0.00 0.00 53 1011.9
20260505011008 69 190 4.0 10.0 0.00 0.00 0.00 53 1012.0
20260505010505 69 216 2.0 12.0 0.00 0.00 0.00 52 1012.0
20260505010020 69 202 4.0 16.0 0.00 0.00 0.00 52 1011.9
20260505005506 69 218 7.0 16.0 0.00 0.00 0.00 52 1011.9
20260505005008 69 203 4.0 11.0 0.00 0.00 0.00 52 1011.9
20260505004533 69 210 5.0 11.0 0.00 0.00 0.00 52 1011.8
20260505004007 69 205 4.0 9.0 0.00 0.00 0.00 52 1011.7
20260505003505 70 238 1.0 7.0 0.00 0.00 0.00 52 1011.7
20260505003025 70 201 2.0 8.0 0.00 0.00 0.00 51 1011.7
20260505002502 71 216 2.0 8.0 0.00 0.00 0.00 51 1011.7
20260505002002 71 198 3.0 9.0 0.00 0.00 0.00 50 1011.7
20260505001521 72 210 2.0 14.0 0.00 0.00 0.00 50 1011.7
20260505001002 72 206 5.0 14.0 0.00 0.00 0.00 48 1011.7
20260505000505 72 182 4.0 13.0 0.00 0.00 0.00 48 1011.7
20260505000027 72 256 5.0 12.0 0.00 0.00 0.00 49 1011.7
20260504235505 72 198 3.0 13.0 0.00 0.00 0.00 48 1011.7
20260504235008 73 194 3.0 13.0 0.00 0.00 0.00 49 1011.8
20260504234519 73 213 3.0 12.0 0.00 0.00 0.00 47 1011.8
20260504234008 74 168 3.0 14.0 0.00 0.00 0.00 47 1011.8
20260504233507 74 228 8.0 16.0 0.00 0.00 0.00 46 1011.9
20260504233026 74 221 3.0 16.0 0.00 0.00 0.00 47 1012.0
20260504232506 75 192 6.0 17.0 0.00 0.00 0.00 46 1012.0
20260504232009 75 232 5.0 18.0 0.00 0.00 0.00 46 1011.9
20260504231526 75 198 11.0 18.0 0.00 0.00 0.00 45 1012.0
20260504231007 75 194 5.0 15.0 0.00 0.00 0.00 47 1012.0
20260504230503 75 169 7.0 15.0 0.00 0.00 0.00 46 1011.8
20260504230017 75 192 7.0 21.0 0.00 0.00 0.00 46 1012.0
20260504225502 76 200 10.0 21.0 0.00 0.00 0.00 44 1011.8
20260504225006 76 212 8.0 15.0 0.00 0.00 0.00 44 1011.8
20260504224518 76 209 6.0 14.0 0.00 0.00 0.00 44 1011.8
20260504224005 76 184 5.0 18.0 0.00 0.00 0.00 44 1011.8
20260504223508 77 192 10.0 18.0 0.00 0.00 0.00 43 1011.8
20260504223023 77 152 9.0 18.0 0.00 0.00 0.00 43 1011.8
20260504222506 77 198 5.0 20.0 0.00 0.00 0.00 43 1011.8
20260504222014 77 205 9.0 20.0 0.00 0.00 0.00 42 1011.8
20260504221529 78 163 5.0 13.0 0.00 0.00 0.00 43 1011.8
20260504221007 78 154 5.0 25.0 0.00 0.00 0.00 44 1011.7
20260504220509 77 182 6.0 25.0 0.00 0.00 0.00 43 1011.8
20260504220026 77 223 13.0 24.0 0.00 0.00 0.00 43 1011.8
20260504215510 77 222 13.0 21.0 0.00 0.00 0.00 42 1011.7
20260504215009 77 199 6.0 22.0 0.00 0.00 0.00 43 1011.7
20260504214515 78 165 8.0 22.0 0.00 0.00 0.00 45 1011.7
20260504214008 78 214 4.0 17.0 0.00 0.00 0.00 45 1011.5
20260504213506 78 206 7.0 15.0 0.00 0.00 0.00 45 1011.5
20260504213043 78 173 5.0 17.0 0.00 0.00 0.00 46 1011.6
20260504212507 78 221 5.0 19.0 0.00 0.00 0.00 47 1011.6
20260504212007 77 188 7.0 19.0 0.00 0.00 0.00 44 1011.6
20260504211525 78 197 9.0 15.0 0.00 0.00 0.00 46 1011.6
20260504211012 78 213 7.0 13.0 0.00 0.00 0.00 43 1011.6
20260504210508 78 169 4.0 14.0 0.00 0.00 0.00 48 1011.6
20260504210027 78 159 6.0 16.0 0.00 0.00 0.00 45 1011.7
20260504205507 78 202 8.0 16.0 0.00 0.00 0.00 44 1011.7
20260504205006 78 207 6.0 17.0 0.00 0.00 0.00 47 1011.8
20260504204527 77 209 6.0 21.0 0.00 0.00 0.00 47 1012.0
20260504204010 79 202 10.0 21.0 0.00 0.00 0.00 44 1012.1
20260504203511 78 223 7.0 17.0 0.00 0.00 0.00 44 1012.1
20260504203018 78 269 9.0 17.0 0.00 0.00 0.00 44 1012.3
20260504202507 76 134 3.0 24.0 0.00 0.00 0.00 50 1012.2
20260504202007 77 225 7.0 24.0 0.00 0.00 0.00 45 1012.4
20260504201505 77 223 12.0 23.0 0.00 0.00 0.00 44 1012.5
20260504201002 77 204 9.0 19.0 0.00 0.00 0.00 42 1012.4
20260504200504 77 198 7.0 15.0 0.00 0.00 0.00 45 1012.5
20260504200004 77 195 4.0 15.0 0.00 0.00 0.00 50 1012.7
20260504195502 77 204 8.0 15.0 0.00 0.00 0.00 47 1012.8
20260504195002 78 184 5.0 12.0 0.00 0.00 0.00 48 1012.8
20260504194514 78 228 6.0 14.0 0.00 0.00 0.00 48 1012.8
20260504194002 77 154 8.0 21.0 0.00 0.00 0.00 49 1012.9
20260504193505 76 230 7.0 21.0 0.00 0.00 0.00 48 1012.9
20260504193016 77 194 4.0 15.0 0.00 0.00 0.00 48 1013.0
20260504192506 78 191 6.0 15.0 0.00 0.00 0.00 48 1013.2
20260504192006 77 138 6.0 14.0 0.00 0.00 0.00 48 1013.2
20260504191520 77 121 5.0 14.0 0.00 0.00 0.00 49 1013.2
20260504191008 78 193 5.0 13.0 0.00 0.00 0.00 49 1013.3
20260504190507 77 180 5.0 15.0 0.00 0.00 0.00 49 1013.3
20260504190021 77 206 8.0 15.0 0.00 0.00 0.00 50 1013.3
20260504185506 78 183 6.0 15.0 0.00 0.00 0.00 49 1013.4
20260504185002 77 148 6.0 14.0 0.00 0.00 0.00 50 1013.5
20260504184514 77 207 7.0 14.0 0.00 0.00 0.00 51 1013.5
20260504184003 78 208 4.0 15.0 0.00 0.00 0.00 48 1013.5
20260504183503 77 271 4.0 19.0 0.00 0.00 0.00 49 1013.6
20260504183019 76 208 5.0 19.0 0.00 0.00 0.00 51 1013.6
20260504182509 76 202 7.0 16.0 0.00 0.00 0.00 51 1013.6
20260504182007 75 209 8.0 16.0 0.00 0.00 0.00 50 1013.6
20260504181519 76 175 8.0 13.0 0.00 0.00 0.00 51 1013.6
20260504181007 76 217 6.0 15.0 0.00 0.00 0.00 50 1013.6
20260504180507 77 210 7.0 16.0 0.00 0.00 0.00 49 1013.8
20260504180022 76 216 8.0 16.0 0.00 0.00 0.00 50 1013.7
20260504175506 77 175 7.0 13.0 0.00 0.00 0.00 52 1013.7
20260504175009 76 180 6.0 13.0 0.00 0.00 0.00 51 1013.9
20260504174526 76 215 4.0 11.0 0.00 0.00 0.00 50 1014.0
20260504174002 75 137 6.0 16.0 0.00 0.00 0.00 54 1014.0
20260504173506 75 219 10.0 16.0 0.00 0.00 0.00 51 1014.0
20260504173022 76 178 8.0 14.0 0.00 0.00 0.00 50 1014.2
20260504172503 75 219 6.0 13.0 0.00 0.00 0.00 52 1014.1
20260504172006 75 225 7.0 15.0 0.00 0.00 0.00 53 1014.2
20260504171521 75 135 8.0 15.0 0.00 0.00 0.00 53 1014.3